TimeEST,TemperatureF,Dew PointF,Humidity,Sea Level PressureIn,VisibilityMPH,Wind Direction,Wind SpeedMPH,Gust SpeedMPH,PrecipitationIn,Events,Conditions,WindDirDegrees,DateUTC
12:52 AM,28.0,12.9,53,30.04,10.0,WNW,6.9,-,N/A,,Overcast,290,2013-02-03 05:52:00
1:52 AM,26.1,15.1,63,30.02,10.0,WNW,10.4,-,N/A,,Overcast,300,2013-02-03 06:52:00
4:52 AM,25.0,17.1,72,29.98,5.0,NNW,4.6,-,0.00,Snow,Light Snow,340,2013-02-03 09:52:00
5:52 AM,24.1,18.0,77,29.96,7.0,NNW,3.5,-,0.00,,Overcast,340,2013-02-03 10:52:00
6:10 AM,23.0,18.0,81,29.95,10.0,Calm,Calm,-,N/A,,Scattered Clouds,0,2013-02-03 11:10:00
6:52 AM,21.9,17.1,82,29.95,10.0,Calm,Calm,-,N/A,,Clear,0,2013-02-03 11:52:00
7:44 AM,21.0,16.0,81,29.97,8.0,Calm,Calm,-,N/A,,Mostly Cloudy,0,2013-02-03 12:44:00
7:52 AM,21.9,17.1,82,29.97,8.0,Calm,Calm,-,N/A,,Mostly Cloudy,0,2013-02-03 12:52:00
8:52 AM,25.0,19.0,78,29.96,10.0,NNW,4.6,-,N/A,,Overcast,330,2013-02-03 13:52:00
9:52 AM,27.0,19.0,72,29.93,9.0,North,3.5,-,N/A,,Overcast,350,2013-02-03 14:52:00
10:32 AM,28.0,19.9,72,29.91,10.0,NNW,3.5,-,N/A,,Overcast,330,2013-02-03 15:32:00
10:52 AM,28.9,19.9,69,29.90,10.0,NW,4.6,-,N/A,,Overcast,320,2013-02-03 15:52:00
11:52 AM,32.0,19.9,61,29.84,10.0,North,6.9,-,N/A,,Mostly Cloudy,360,2013-02-03 16:52:00
12:01 PM,33.1,19.9,59,29.83,10.0,NNW,5.8,-,N/A,,Scattered Clouds,330,2013-02-03 17:01:00
12:11 PM,33.1,19.9,59,29.83,10.0,North,8.1,-,N/A,,Mostly Cloudy,350,2013-02-03 17:11:00
12:52 PM,33.1,19.9,59,29.82,10.0,NNW,4.6,-,N/A,,Mostly Cloudy,340,2013-02-03 17:52:00
1:52 PM,30.9,19.9,64,29.79,10.0,NNW,8.1,-,N/A,,Overcast,340,2013-02-03 18:52:00
2:52 PM,30.9,19.9,64,29.78,10.0,NNW,6.9,-,N/A,,Overcast,340,2013-02-03 19:52:00
3:52 PM,30.0,19.9,66,29.77,10.0,North,6.9,-,N/A,,Overcast,350,2013-02-03 20:52:00
4:52 PM,28.9,19.0,67,29.74,10.0,NNW,6.9,-,N/A,,Overcast,340,2013-02-03 21:52:00
5:52 PM,28.0,19.0,69,29.76,10.0,NNW,6.9,-,N/A,,Overcast,340,2013-02-03 22:52:00
6:52 PM,28.0,19.0,69,29.76,10.0,NW,6.9,-,N/A,,Overcast,320,2013-02-03 23:52:00
7:52 PM,27.0,19.9,75,29.75,7.0,NW,4.6,-,0.00,Snow,Light Snow,310,2013-02-04 00:52:00
8:52 PM,27.0,19.9,75,29.74,4.0,NW,10.4,-,0.00,Snow,Light Snow,320,2013-02-04 01:52:00
9:52 PM,26.1,21.0,81,29.73,4.0,NNW,8.1,-,0.00,Snow,Light Snow,330,2013-02-04 02:52:00
10:12 PM,26.1,21.0,81,29.73,2.5,WNW,3.5,-,0.00,Snow,Light Snow,300,2013-02-04 03:12:00
10:52 PM,26.1,21.0,81,29.73,3.0,NW,6.9,-,0.00,Snow,Light Snow,320,2013-02-04 03:52:00
11:20 PM,26.1,19.9,78,29.73,2.5,WNW,4.6,-,0.00,Snow,Light Snow,300,2013-02-04 04:20:00
11:28 PM,26.1,19.9,78,29.73,5.0,WNW,5.8,-,0.00,Snow,Light Snow,300,2013-02-04 04:28:00
11:52 PM,26.1,19.9,78,29.73,6.0,NW,4.6,-,0.00,Snow,Light Snow,310,2013-02-04 04:52:00